This demonstration page uses our WeatherBlox Daily Observations layout. Learn more.

38.88101, -77.10428

Hourly Observations for January 10, 2017

Temp ( °F °C ) Dew Point ( °F °C ) Humidity (%) Winds ( mph kmh ) Pressure ( in mb ) Visibility ( mi km ) Precip ( " mm )
12:52 am 00:52 Mostly Cloudy 24 -4.4 10 -12.2 55 55 S 12 19 30.61 1037 10 16.0934 0 0
1:52 am 01:52 Mostly Cloudy 23 -5 8 -13.3 53 53 SSW 8 13 30.6 1036 10 16.0934 0 0
2:52 am 02:52 Mostly Cloudy 23 -5 8 -13.3 53 53 SSW 9 15 30.6 1036 10 16.0934 0 0
3:52 am 03:52 Mostly Cloudy 23 -5 9 -12.8 55 55 SSW 8 13 30.6 1036 10 16.0934 0 0
4:52 am 04:52 Mostly Cloudy 24 -4.4 10 -12.2 55 55 SSW 10 17 30.58 1036 10 16.0934 0 0
5:52 am 05:52 Cloudy 24 -4.4 11 -11.7 57 57 S 8 13 30.57 1035 10 16.0934 0 0
6:52 am 06:52 Mostly Cloudy 24 -4.4 13 -10.6 62 62 S 7 11 30.58 1036 10 16.0934 0 0
7:52 am 07:52 Mostly Cloudy 25 -3.9 13 -10.6 60 60 SSE 9 15 30.58 1036 10 16.0934 0 0
8:52 am 08:52 Cloudy 26 -3.3 14 -10 60 60 S 10 17 30.59 1036 10 16.0934 0 0
9:52 am 09:52 Cloudy 29 -1.7 13 -10.6 51 51 S 7 11 30.6 1036 10 16.0934 0 0
10:52 am 10:52 Cloudy 30 -1.1 13 -10.6 49 49 S 12 19 30.57 1035 10 16.0934 0 0
11:52 am 11:52 Cloudy 32 0 14 -10 47 47 S 10 17 30.52 1033 10 16.0934 0 0
12:52 pm 12:52 Cloudy 34 1.1 15 -9.4 46 46 S 12 19 30.46 1031 10 16.0934 0 0
1:52 pm 13:52 Cloudy 36 2.2 12 -11.1 37 37 S 12 19 30.42 1030 10 16.0934 0 0
2:52 pm 14:52 Cloudy 36 2.2 14 -10 40 40 S 12 19 30.42 1030 10 16.0934 0 0
3:52 pm 15:52 Cloudy 36 2.2 16 -8.9 44 44 SSE 13 20 30.39 1029 10 16.0934 0 0
4:52 pm 16:52 Cloudy 36 2.2 16 -8.9 44 44 S 12 19 30.38 1029 10 16.0934 0 0
5:52 pm 17:52 Cloudy 36 2.2 17 -8.3 46 46 S 15 24 30.36 1028 10 16.0934 0 0
6:52 pm 18:52 Cloudy 36 2.2 19 -7.2 50 50 S 13 20 30.36 1028 10 16.0934 0 0
7:52 pm 19:52 Mostly Cloudy 36 2.2 20 -6.7 52 52 S 15 24 30.31 1027 10 16.0934 0 0
8:52 pm 20:52 Cloudy 38 3.3 20 -6.7 48 48 S 23 37 30.26 1025 10 16.0934 0 0
9:52 pm 21:52 Cloudy 39 3.9 19 -7.2 45 45 S 24 39 30.22 1023 10 16.0934 0 0
10:52 pm 22:52 Cloudy 41 5 23 -5 49 49 S 14 22 30.22 1024 10 16.0934 0 0
11:52 pm 23:52 Cloudy 41 5 25 -3.9 53 53 SSW 15 24 30.21 1023 10 16.0934 0 0

Powered by AerisWeather